GFSWCAN_sfc_wetblb_159.txt.gz
Wetbulb
52.84 53.68 55.09 55.69 56.11 56.38 56.87 57.27 57.47 56.78 55.91 55.17 54.46 54.24 54.89 54.69 55.09 51.70 50.21 52.56 50.02 48.82 50.41 52.51 52.42 48.90 49.18 47.63 44.87 48.28 49.49 48.05 43.23 40.87 39.91 39.62 39.77 42.02 40.75 41.69 39.84 39.07 37.79 36.96 37.69 35.28 37.00 52.92 53.38 47.88 49.49 51.54 54.42 54.81
52.31 53.59 55.05 55.68 55.90 56.16 56.70 56.36 55.55 55.15 54.62 54.17 53.99 54.30 54.60 54.72 54.34 54.17 49.21 53.84 52.98 48.79 49.44 53.76 53.83 55.08 54.28 53.02 49.04 48.52 47.17 47.54 48.78 42.63 41.00 42.18 41.77 39.49 39.46 39.15 42.83 39.44 41.71 40.18 41.17 41.08 48.14 50.10 50.87 51.97 52.70 53.06 54.83 54.34
52.09 53.47 54.94 55.54 55.76 55.84 55.09 54.79 54.40 54.05 53.99 53.62 53.70 54.07 54.42 54.80 54.60 52.97 49.36 50.55 50.55 48.72 48.95 49.01 48.76 53.04 54.11 54.51 55.71 46.44 49.06 51.55 47.27 48.33 44.85 43.51 41.42 41.41 38.31 40.59 41.93 44.70 44.69 42.28 43.25 45.66 48.12 50.39 53.46 54.70 54.49 54.01 56.55 57.38
51.90 53.86 55.06 54.91 54.83 54.57 54.18 53.79 53.69 53.62 53.64 53.68 53.90 53.89 54.19 54.52 54.42 53.46 47.13 48.98 48.10 48.56 45.14 46.38 53.94 50.91 55.04 53.50 53.92 53.96 51.83 51.52 48.81 49.55 47.76 43.51 42.22 43.01 40.37 43.75 43.36 46.13 45.08 43.28 43.26 47.51 50.42 52.50 53.99 54.69 56.85 57.60 56.22 59.03
51.88 53.91 54.78 54.33 54.08 53.63 53.18 53.31 53.21 53.15 53.15 53.37 53.41 53.50 53.92 54.01 53.84 51.57 49.16 49.44 50.47 47.11 44.21 45.73 50.02 52.10 52.68 52.19 53.02 53.08 51.39 49.77 47.93 46.03 44.94 43.53 45.73 44.29 40.99 41.53 41.64 46.24 43.86 43.30 44.62 49.31 49.84 50.73 54.40 56.06 56.43 56.41 56.13 57.81
51.68 53.75 54.26 53.77 53.54 53.49 52.91 52.61 53.04 52.84 52.48 52.71 53.05 53.31 53.50 53.57 52.85 47.87 46.25 51.30 52.40 52.96 48.16 43.00 49.18 50.05 52.55 51.01 49.84 51.83 52.44 50.74 47.35 47.21 46.20 47.45 49.33 45.27 41.07 40.04 45.53 46.77 46.90 47.34 48.92 50.69 50.63 52.52 55.72 56.39 55.61 56.62 56.62 57.39
51.93 53.51 53.57 53.30 53.21 53.02 52.58 52.15 52.20 52.19 52.21 52.15 52.72 53.18 53.25 52.63 47.89 44.64 45.24 51.51 51.37 50.98 48.23 44.98 45.03 51.51 54.06 51.93 49.64 48.91 53.09 50.72 49.19 46.72 46.28 47.93 46.94 46.93 42.03 40.58 47.08 47.55 49.73 51.47 51.18 52.92 50.35 52.46 53.51 55.45 55.77 56.44 56.82 59.29
51.76 53.34 53.05 52.89 52.75 52.92 52.96 52.73 52.35 52.01 52.11 51.76 52.60 52.72 52.55 52.27 50.22 47.47 49.56 51.14 51.29 49.03 49.49 44.35 44.36 47.36 51.57 48.01 47.19 49.47 47.34 49.81 49.47 48.42 47.28 49.05 47.94 44.72 41.95 46.03 46.75 48.61 50.16 52.09 51.96 51.21 52.63 52.22 51.82 52.31 54.18 56.92 57.84 58.44
51.51 52.95 52.12 51.50 51.48 51.94 52.43 52.75 52.30 52.02 51.60 51.58 52.29 52.48 48.30 48.75 44.82 46.99 55.41 53.06 51.38 49.66 45.83 46.79 44.46 44.05 52.51 49.08 48.39 48.23 48.33 44.83 47.43 45.35 46.12 49.29 45.46 41.84 45.37 47.41 48.79 49.77 49.91 50.70 51.14 52.31 50.66 51.19 51.29 52.40 57.15 57.17 57.21 58.10
51.15 52.59 52.40 51.90 51.53 51.91 52.09 52.22 52.06 51.79 51.31 51.79 48.19 47.58 44.38 46.77 53.27 55.97 51.41 48.19 47.52 48.23 48.02 44.70 47.67 44.25 47.01 47.80 48.36 48.13 47.85 45.02 43.00 45.82 48.56 45.17 44.78 48.06 47.86 51.14 51.88 50.78 50.30 51.27 49.32 46.28 48.28 46.82 49.76 51.25 56.12 58.26 58.85 58.98
50.95 51.55 51.94 51.56 51.15 51.22 51.53 51.71 51.50 51.15 50.74 47.04 46.90 46.92 51.65 55.75 50.77 48.74 46.95 44.80 44.98 43.47 45.91 46.65 46.45 45.93 48.42 46.47 46.97 49.17 44.79 45.18 41.62 44.26 45.37 41.74 42.05 47.46 50.99 49.88 49.39 49.82 50.86 51.76 51.55 51.41 51.51 51.19 50.65 50.86 52.75 57.14 57.97 58.82
50.59 50.51 50.46 50.58 50.64 51.00 51.49 51.25 51.16 47.54 49.23 48.15 47.99 49.32 49.85 48.85 44.47 42.73 44.53 46.29 43.88 41.35 46.33 45.27 44.95 47.03 46.78 52.93 50.20 49.69 45.92 46.01 42.17 48.71 44.52 40.50 45.00 47.08 49.51 51.24 52.15 51.01 51.70 52.02 52.33 52.06 52.97 53.10 52.04 51.91 52.65 55.61 57.67 58.99
50.40 50.36 50.34 50.32 50.90 51.51 51.70 51.29 51.15 50.18 49.42 49.23 48.34 46.93 47.42 45.33 38.21 41.27 39.11 41.99 42.53 48.88 50.37 49.62 46.27 46.57 49.95 52.18 50.40 48.95 45.33 44.56 48.35 44.78 42.49 43.71 45.13 49.04 48.36 51.03 52.47 52.71 53.33 53.73 53.60 53.52 53.59 53.64 53.98 52.75 52.00 54.85 57.59 57.84
50.14 50.32 50.67 51.53 51.63 51.60 51.48 51.22 50.66 49.76 47.33 44.12 45.27 37.03 41.34 41.23 40.49 41.02 45.41 46.24 49.09 50.37 49.86 49.88 47.99 46.47 49.49 47.37 47.85 45.39 47.93 48.19 43.30 40.65 42.26 45.11 47.59 52.46 53.00 51.82 51.63 52.07 53.35 54.24 54.59 54.06 53.38 53.14 53.35 54.10 53.66 53.61 57.14 57.24
50.90 51.12 51.01 50.57 51.28 51.33 51.39 50.79 51.02 48.52 47.49 44.88 44.24 36.72 39.41 43.21 45.63 48.25 48.86 49.37 50.85 50.93 48.83 48.46 48.85 49.30 47.20 46.38 47.15 46.00 44.49 42.96 43.57 42.12 43.76 45.58 51.29 52.27 53.77 55.09 54.47 53.26 52.20 51.42 52.13 52.77 52.89 52.92 52.90 53.06 53.52 53.55 57.77 58.05
50.03 49.56 48.28 50.02 50.74 51.26 51.01 50.50 47.85 46.46 47.69 46.19 43.40 42.20 43.88 42.66 43.29 45.47 46.39 46.44 51.48 51.25 51.21 48.70 47.19 46.69 45.59 45.84 45.05 44.44 43.54 41.82 43.82 47.46 51.31 51.38 50.35 51.00 52.10 55.09 55.91 56.66 56.23 55.69 54.96 51.82 51.27 51.35 53.20 53.13 53.31 53.24 57.59 58.28
49.00 46.63 50.74 50.78 51.57 51.13 50.59 46.75 46.21 46.19 44.75 44.64 42.56 45.53 44.78 44.39 44.66 47.19 49.05 48.77 50.00 49.76 46.86 45.83 43.53 44.15 48.06 43.98 43.03 45.21 43.91 46.86 49.25 51.40 51.71 51.31 50.90 51.00 52.42 53.89 55.13 55.50 55.71 56.14 56.10 55.49 52.01 51.31 52.36 52.51 51.57 53.92 57.28 58.26
46.95 51.35 51.90 51.65 50.48 49.89 47.01 47.88 47.94 46.45 43.36 43.41 40.62 42.81 45.26 46.97 46.12 47.71 48.53 48.68 46.82 47.25 47.12 46.01 48.18 43.44 43.38 43.18 43.06 46.40 48.35 49.52 50.79 51.34 49.84 49.73 49.90 49.96 52.12 51.36 53.74 54.80 54.94 55.44 57.06 55.85 54.69 53.38 52.74 52.54 52.40 55.97 56.81 56.66
49.49 49.80 51.46 51.86 50.89 49.75 44.84 45.12 46.07 41.81 43.10 44.23 43.97 44.03 44.83 45.27 46.69 46.13 46.27 46.72 47.26 48.79 46.86 46.43 42.86 41.86 42.41 45.28 46.75 47.80 50.76 50.36 50.92 49.63 50.22 49.96 50.91 52.98 51.63 52.33 52.70 51.73 53.18 53.89 54.42 54.23 55.80 54.94 53.63 52.95 52.88 57.64 57.91 58.51
50.15 50.38 50.79 51.72 52.05 48.43 46.74 45.58 47.94 43.80 42.58 42.61 43.80 43.56 44.54 44.94 45.91 46.42 45.99 45.29 44.90 46.23 44.28 43.19 42.55 43.92 45.75 47.65 49.30 49.75 50.57 51.09 50.29 48.36 49.73 51.46 50.66 50.08 50.99 51.49 51.54 51.10 52.71 52.72 52.89 50.72 53.47 54.44 53.33 53.37 54.33 57.30 58.07 58.56
49.80 49.64 50.55 50.22 49.11 48.40 45.21 45.17 47.10 47.49 45.75 43.32 44.65 44.15 42.92 43.95 43.52 43.28 43.64 44.90 43.07 42.04 42.72 45.80 46.83 46.12 46.41 49.24 50.71 50.91 51.04 51.14 49.75 49.86 49.41 49.67 51.08 49.79 50.22 51.28 51.55 52.21 52.30 52.01 52.49 52.80 51.27 52.89 54.38 54.79 55.15 54.98 57.79 59.64
50.31 51.77 49.03 48.65 44.57 46.79 44.30 45.24 43.38 44.38 42.98 42.47 42.77 41.99 41.31 40.90 42.09 42.81 44.42 42.85 42.38 43.67 43.90 43.74 44.56 45.60 45.78 47.05 49.86 50.81 51.33 51.19 51.19 51.11 49.36 49.12 50.42 50.16 50.26 52.40 52.84 52.47 52.33 52.75 52.75 52.78 53.36 53.82 54.08 54.48 54.82 55.05 56.58 57.73
49.61 49.77 48.60 47.56 45.01 41.62 39.48 44.25 40.72 41.13 39.39 40.82 44.22 44.17 44.09 45.13 46.91 49.76 43.96 43.50 44.92 46.02 46.29 46.15 46.47 46.90 46.87 47.94 49.81 51.84 52.60 51.63 51.04 51.22 51.24 50.25 50.31 50.98 50.76 53.03 53.49 52.26 50.94 50.93 53.00 53.43 53.12 50.21 51.78 53.76 53.68 55.30 55.10 54.96
49.32 45.04 44.94 44.46 42.03 37.19 41.59 39.99 42.42 42.27 43.25 43.04 44.15 43.90 45.76 45.91 49.01 48.08 45.64 48.50 51.21 51.35 48.77 47.62 46.71 46.54 48.66 49.20 48.83 49.67 51.15 52.27 51.24 49.79 49.56 49.73 49.75 50.92 52.39 52.77 52.41 51.94 52.60 54.03 53.50 53.47 53.00 52.77 49.61 53.16 53.60 54.53 55.23 54.87
41.14 35.56 39.38 34.46 39.89 40.80 41.59 41.08 40.55 42.91 42.42 44.68 44.50 44.54 45.38 48.03 45.02 46.02 46.11 48.39 47.11 49.42 51.14 51.36 50.31 52.68 51.74 52.16 52.95 52.58 52.22 51.10 50.91 50.46 51.00 51.46 50.13 50.38 50.73 50.41 49.96 50.28 53.53 52.54 52.58 52.96 52.77 52.93 52.55 53.51 54.63 54.22 54.30 54.72
35.12 37.51 35.07 42.07 39.72 39.20 39.47 41.55 43.02 43.77 45.15 45.42 45.92 47.79 48.77 46.27 45.18 43.69 45.35 46.60 48.73 52.05 51.14 50.46 51.93 51.43 52.05 52.71 50.85 50.27 52.04 52.25 51.30 50.27 52.20 53.99 52.84 51.55 50.31 48.46 48.21 49.61 54.17 53.03 52.57 52.44 52.50 52.56 52.15 51.61 51.00 49.16 45.91 50.67
34.65 35.19 39.15 42.41 44.08 44.37 43.94 45.14 46.28 44.55 43.83 45.04 42.91 45.48 45.94 42.63 42.97 46.21 49.59 50.81 51.63 53.46 54.69 55.07 53.93 52.17 50.63 50.20 51.10 51.98 51.45 51.90 51.73 52.19 53.26 54.16 53.07 53.21 51.81 49.91 48.22 51.59 54.92 57.26 57.16 56.46 54.87 54.18 53.32 52.51 51.89 52.57 51.99 51.66
38.99 39.23 36.81 39.42 41.20 43.20 42.83 44.06 44.49 44.82 45.75 45.92 46.86 44.62 43.72 43.85 45.36 50.21 51.85 54.01 54.98 54.42 54.10 52.56 52.79 54.97 53.63 52.37 52.26 51.95 52.52 52.76 52.79 52.27 53.39 54.57 55.24 55.54 55.89 56.00 55.52 47.44 55.59 56.69 57.20 56.98 56.46 55.68 54.99 54.75 54.22 53.56 53.49 54.30
38.75 40.94 40.62 39.12 41.40 42.89 45.11 44.97 46.21 48.25 47.58 47.08 45.36 44.92 47.27 50.58 51.43 51.47 52.00 53.97 54.06 52.38 50.76 48.97 50.24 51.50 53.15 54.63 54.23 53.31 52.64 51.89 49.51 47.14 46.88 46.00 48.14 51.12 52.22 52.26 52.33 53.29 53.21 52.25 46.99 50.00 54.85 55.05 54.82 54.92 54.84 53.77 54.14 54.56
40.03 42.75 41.61 42.34 43.66 44.01 47.66 49.77 48.98 48.62 48.96 49.73 49.61 48.49 48.21 48.82 51.63 53.63 54.60 55.38 52.85 51.98 51.24 51.03 50.58 50.47 50.11 50.02 50.00 51.26 52.64 52.64 51.33 50.45 49.05 47.56 49.34 51.59 53.00 52.70 52.70 52.66 54.09 53.77 52.67 47.35 44.34 48.88 47.84 51.63 51.65 51.80 51.77 51.49
45.70 46.10 44.32 45.64 45.71 48.20 50.00 49.80 49.81 49.43 50.00 48.10 48.82 46.76 47.06 48.80 51.06 52.00 51.86 50.85 50.69 49.46 47.33 46.84 47.11 48.54 50.39 50.18 47.57 49.48 50.08 52.13 53.23 53.54 53.58 53.18 53.22 53.38 53.72 53.73 53.57 53.22 51.72 51.06 47.04 46.23 46.15 47.08 48.91 49.72 50.42 50.47 50.53 49.56
45.47 45.48 45.22 45.04 45.43 47.00 51.16 49.90 48.48 48.76 49.02 48.32 47.08 48.31 48.54 48.07 47.11 48.20 50.64 50.22 48.86 47.59 46.89 48.12 48.58 47.35 46.91 47.11 47.30 47.90 45.70 52.19 52.90 53.42 53.54 53.00 53.21 53.75 53.67 52.51 51.67 51.17 50.75 50.14 47.87 47.91 50.25 50.38 48.60 48.16 48.21 49.32 49.87 48.59
44.66 47.36 45.91 44.22 44.26 46.63 49.01 49.24 47.91 47.60 48.14 46.83 46.56 47.87 48.59 47.50 46.66 48.10 49.83 50.62 49.79 49.83 49.33 49.41 48.64 48.46 48.09 48.01 48.07 47.02 45.45 46.59 44.44 44.09 46.81 46.27 46.78 48.54 52.00 51.84 51.68 52.32 50.20 48.72 49.75 48.45 49.63 50.45 49.24 49.04 48.88 48.90 48.90 49.35

GFSWCAN_sfc_wetblb_162.txt.gz
Wetbulb
52.02 52.05 52.20 53.95 55.17 55.92 56.18 56.52 57.00 57.60 57.44 56.22 55.26 54.51 54.80 54.67 54.52 52.01 47.73 50.64 49.71 48.50 48.50 52.35 52.88 49.25 47.64 46.71 41.61 45.35 47.34 47.37 45.58 41.11 40.49 39.82 38.35 40.91 40.94 39.91 38.98 39.48 37.45 36.43 36.63 34.28 35.02 50.93 52.62 47.07 48.52 51.07 53.58 55.01
51.85 51.81 52.16 53.96 55.30 55.96 56.10 56.62 56.18 55.72 55.29 54.72 54.20 54.18 54.48 54.67 54.58 53.10 46.81 51.24 50.87 45.76 46.72 51.84 53.09 55.04 53.62 52.61 47.17 46.22 46.68 47.39 47.35 42.85 40.63 40.38 40.33 39.24 40.31 39.09 41.24 39.30 40.51 39.30 40.96 40.58 46.89 50.48 50.51 52.02 52.44 51.73 55.10 55.33
51.79 51.60 52.48 54.33 55.26 55.62 55.44 54.95 54.69 54.28 54.18 53.87 53.79 54.07 54.24 54.40 54.52 52.65 46.66 49.47 49.49 47.28 46.92 47.16 47.94 52.71 54.30 53.56 54.37 45.96 46.89 51.40 47.81 47.32 43.91 41.84 40.57 40.46 40.26 39.76 40.90 42.07 43.68 41.57 42.66 44.23 46.57 49.46 51.75 54.09 54.35 54.27 56.68 56.70
51.47 51.43 52.35 54.31 54.96 54.37 54.14 53.88 53.72 53.61 53.65 53.75 53.85 53.95 54.05 54.17 54.30 53.46 47.40 46.88 46.18 45.60 43.63 44.67 52.77 50.65 54.37 52.82 53.01 53.29 51.46 51.10 49.84 47.78 45.30 43.13 40.89 42.02 39.97 42.60 42.44 45.01 45.01 42.43 42.85 46.10 49.23 51.02 52.70 54.49 56.52 56.94 57.83 57.84
51.51 51.40 52.56 54.50 54.31 53.80 53.22 53.10 53.14 53.11 53.05 53.18 53.55 53.68 53.74 53.89 53.58 51.13 48.85 48.24 48.37 44.99 42.92 43.37 49.38 51.57 52.25 52.33 52.15 52.51 51.37 49.78 46.60 44.65 43.93 43.96 42.27 44.60 40.83 41.26 41.45 45.45 43.16 43.60 43.58 48.59 48.81 49.47 52.89 55.74 56.61 56.30 57.88 58.51
51.56 51.68 52.88 54.26 53.87 53.44 53.13 52.65 52.75 52.84 52.57 52.37 52.76 53.32 53.56 53.41 52.47 45.69 42.27 50.20 50.94 50.20 47.22 42.58 48.46 49.13 51.98 51.32 50.18 50.52 50.42 49.69 47.21 45.14 45.92 45.49 47.17 43.91 40.62 38.87 44.67 44.86 45.06 48.25 49.08 50.33 51.26 53.21 55.22 56.73 56.18 56.57 57.80 59.25
51.48 51.61 53.07 53.68 53.47 53.26 52.92 52.18 52.22 52.24 52.34 51.96 52.20 52.71 52.93 52.59 48.86 43.34 42.20 50.79 51.61 50.56 48.31 43.43 43.65 49.17 53.48 48.72 47.25 48.78 50.92 48.77 48.55 47.22 45.45 46.82 46.64 44.26 40.91 40.26 46.30 47.66 48.39 48.81 51.14 52.75 51.21 53.76 53.92 55.92 56.44 57.44 57.40 59.75
51.29 51.46 52.74 53.09 52.96 52.67 52.67 52.95 52.59 52.25 51.87 51.79 51.76 52.35 52.30 52.11 50.43 46.36 47.37 50.72 50.76 47.78 48.92 43.07 43.62 46.28 52.48 48.04 45.06 48.96 47.27 48.59 47.07 46.70 46.98 45.73 45.59 43.47 41.76 45.51 46.93 49.66 50.49 51.06 51.20 52.62 52.72 52.63 54.11 54.71 55.13 55.69 56.70 57.50
51.48 51.38 52.72 51.90 51.44 51.67 52.37 52.60 52.54 52.31 52.24 51.78 52.01 52.29 48.31 48.10 44.06 44.85 54.29 53.33 50.83 48.46 45.07 45.82 43.41 42.15 51.73 48.88 48.24 46.87 46.31 44.78 47.06 45.33 46.29 47.51 44.39 42.28 46.38 47.01 48.70 49.06 51.56 51.72 51.48 51.50 51.15 52.31 52.78 53.35 54.68 55.49 54.61 56.47
51.34 51.27 52.23 52.11 51.69 51.19 51.39 51.76 51.80 52.03 51.36 51.62 49.38 46.45 43.65 46.12 52.32 54.07 51.36 48.13 47.26 48.06 47.62 43.92 46.40 44.48 47.64 45.52 48.04 46.52 46.62 43.33 42.92 46.07 49.05 46.31 43.51 48.08 48.59 49.36 49.43 50.22 50.16 50.47 49.70 48.57 49.21 48.66 50.30 52.00 54.75 55.76 56.77 57.40
51.43 50.97 51.26 51.86 51.72 51.57 51.22 51.53 51.67 51.08 50.53 47.83 46.33 45.68 50.32 54.98 50.90 47.24 46.08 44.51 44.57 42.82 45.72 45.17 45.22 45.37 48.36 45.70 46.77 49.45 45.75 44.01 40.98 43.86 44.81 41.23 41.67 47.18 51.41 51.39 50.68 49.70 50.13 51.86 52.87 53.39 52.42 51.69 49.83 51.20 54.01 56.88 57.30 58.71
51.04 50.60 50.53 50.52 50.64 50.60 51.20 51.10 51.15 47.49 48.04 48.18 47.35 48.64 49.42 47.91 44.87 41.82 42.98 45.73 43.66 41.17 44.92 45.72 46.12 47.54 48.62 51.68 49.52 50.00 46.26 44.70 40.95 47.08 42.94 39.61 45.02 48.68 49.50 51.30 53.23 51.46 51.07 51.68 52.68 52.17 52.46 52.66 51.75 51.41 53.29 56.34 57.46 59.08
50.50 50.31 50.32 50.17 50.40 50.79 51.22 51.32 51.09 50.05 49.14 48.68 47.96 46.57 46.73 45.40 38.35 40.82 38.86 41.50 43.55 48.14 49.58 49.09 46.90 46.81 47.98 51.58 49.41 48.37 45.14 43.35 48.34 43.96 42.08 44.00 46.40 50.21 51.31 49.28 51.28 51.67 51.72 52.43 53.03 53.36 53.24 53.77 53.65 52.53 51.98 55.94 57.48 58.16
50.11 50.12 50.30 50.29 51.10 51.51 51.33 51.18 50.95 49.33 47.08 44.12 44.25 35.80 41.64 40.16 40.60 41.21 43.76 45.48 48.66 49.56 49.43 49.78 46.57 46.72 47.80 46.17 48.45 44.78 46.56 47.60 43.10 40.54 42.82 45.62 48.96 51.29 52.62 52.48 51.33 52.12 52.37 52.23 52.95 54.40 54.21 53.52 53.10 53.92 52.88 53.81 57.16 57.45
50.28 50.71 50.70 50.57 51.30 51.38 51.14 50.87 50.75 49.28 46.76 43.61 44.60 37.21 38.94 41.64 44.74 47.37 47.95 48.32 50.34 50.67 49.53 48.12 47.13 48.40 47.10 46.01 47.20 44.74 43.78 41.32 43.84 42.50 44.61 47.88 49.37 49.79 53.17 54.60 53.02 51.71 51.38 52.15 52.86 53.54 54.04 53.70 53.07 53.20 53.40 53.10 57.21 58.07
50.03 49.45 48.30 50.01 50.51 51.15 50.82 50.45 48.75 47.69 47.26 45.48 43.90 41.40 43.46 42.05 42.00 42.59 45.31 46.35 50.46 51.16 49.68 47.91 46.45 45.23 44.65 45.27 43.94 43.28 42.36 40.84 43.52 47.32 51.18 50.86 50.70 51.58 52.59 53.72 54.44 55.44 55.26 55.47 55.33 53.95 52.26 52.30 52.21 52.68 53.13 52.83 55.77 57.71
48.72 46.21 50.50 50.42 50.96 51.18 50.50 47.40 45.96 45.29 43.92 43.84 42.27 43.65 43.20 42.69 44.14 45.65 48.50 48.35 50.96 47.06 45.74 46.30 43.41 43.64 47.31 43.05 42.71 45.73 43.79 46.77 49.19 51.68 52.33 52.15 50.60 50.68 51.64 52.91 54.40 56.07 55.51 55.83 55.98 55.73 55.03 52.66 52.29 53.27 53.21 52.89 54.83 57.65
46.85 50.42 51.90 51.52 49.67 49.10 46.83 47.63 47.06 45.59 42.09 42.93 40.26 41.54 43.34 45.19 44.90 46.75 48.39 48.76 47.29 46.47 47.06 45.93 46.97 44.90 43.70 42.38 43.69 46.92 48.65 50.23 51.23 51.73 50.65 50.94 51.38 51.06 51.79 51.74 53.15 53.03 53.66 53.97 54.26 54.71 55.39 55.10 54.47 53.42 53.41 53.21 54.41 56.21
49.22 49.66 51.34 51.38 50.16 47.78 43.06 43.89 44.98 40.85 42.38 43.34 43.43 43.20 43.41 44.03 45.27 46.61 46.75 45.66 46.51 48.37 45.87 46.37 43.04 41.72 42.79 46.12 48.30 49.33 50.01 50.69 50.31 49.86 51.21 51.31 50.93 51.36 51.17 52.23 51.70 52.12 52.78 52.75 52.71 52.89 53.59 54.58 55.34 54.72 53.87 54.72 55.26 56.31
49.86 50.37 50.49 51.85 51.73 48.27 45.89 45.96 46.21 43.00 41.21 42.28 42.68 42.29 42.58 43.73 44.80 45.23 45.71 44.76 43.65 44.79 44.13 42.91 41.99 43.26 46.34 48.63 50.10 49.82 50.34 50.87 50.69 49.11 49.75 51.19 51.12 49.95 50.70 50.53 51.25 50.94 52.20 52.57 52.93 50.04 53.21 53.58 54.92 54.85 54.07 55.52 56.09 56.58
49.40 49.35 50.27 50.41 48.70 48.03 45.54 45.14 46.01 46.59 45.39 42.50 43.47 42.95 42.62 42.59 42.79 42.71 42.75 43.51 41.71 40.77 40.77 43.89 45.26 46.15 46.25 47.54 49.88 50.29 50.10 50.43 50.04 50.23 49.69 49.64 51.24 50.78 50.70 51.81 51.55 52.38 51.90 51.87 52.20 52.08 51.43 53.33 53.93 54.52 54.95 54.95 57.59 58.53
49.99 51.37 48.19 48.77 45.28 46.44 45.76 43.91 42.02 43.53 41.54 41.64 41.21 41.58 40.77 40.06 41.63 43.51 45.13 42.23 41.81 42.98 42.91 43.09 44.52 46.48 46.00 46.90 50.20 50.55 50.08 50.28 50.91 50.83 48.96 49.21 49.74 49.92 50.45 50.54 52.80 52.61 51.53 51.72 52.15 52.56 53.30 54.05 54.05 54.26 55.09 55.44 55.64 58.43
49.36 49.33 47.92 47.83 44.26 42.25 40.25 43.42 40.92 40.10 38.35 39.17 42.82 43.80 44.36 44.60 46.63 48.98 45.09 44.24 45.92 47.71 45.93 45.59 45.56 45.95 45.81 46.89 47.34 48.12 50.31 50.64 49.76 50.44 51.08 51.28 51.41 50.76 50.26 51.13 53.25 53.06 51.85 52.22 52.93 53.57 53.86 50.28 52.35 53.74 54.71 55.32 55.66 55.56
48.76 46.11 44.79 44.38 43.38 37.19 41.20 38.87 40.48 40.87 41.77 43.01 44.10 43.03 45.11 45.90 47.76 47.35 45.89 48.05 50.88 50.35 48.68 48.08 46.81 45.75 47.20 47.85 47.07 48.20 49.30 51.25 51.27 50.96 50.46 50.08 49.73 50.47 51.24 52.21 52.95 52.66 52.88 54.14 53.91 53.45 54.20 54.02 49.36 53.77 53.99 55.30 56.36 56.16
41.01 37.10 39.11 34.35 39.83 40.45 41.61 40.49 39.32 41.11 42.46 44.39 43.73 43.84 44.89 47.64 44.36 45.18 45.53 48.17 47.92 49.83 51.57 51.57 50.10 50.60 50.05 50.44 51.03 50.63 51.07 50.65 50.65 50.29 50.93 51.08 51.12 50.76 51.03 51.25 51.20 51.67 53.26 53.21 53.15 53.45 53.78 53.55 53.34 53.72 54.39 55.37 55.40 55.28
35.76 37.46 34.96 40.49 38.87 37.90 38.73 40.33 42.47 43.01 44.09 44.45 45.36 47.04 48.47 45.82 44.64 43.26 45.69 46.84 48.94 51.33 52.42 52.52 51.97 50.95 51.76 52.61 52.11 51.71 52.26 51.91 52.46 51.49 51.45 51.65 51.26 51.52 51.01 50.08 49.38 50.55 54.57 54.87 53.70 53.57 53.23 53.00 52.53 52.23 51.90 51.15 46.77 52.11
34.57 34.26 37.47 40.65 42.41 43.25 42.57 44.42 45.42 44.43 42.95 43.99 42.28 44.99 45.77 42.17 42.41 46.26 50.43 51.31 50.97 53.35 54.10 54.54 53.32 51.27 50.01 50.35 51.05 51.20 51.51 51.67 51.71 52.47 54.12 54.98 55.04 54.40 52.85 50.64 51.19 53.38 55.42 56.64 56.68 55.78 54.39 53.84 53.25 52.69 52.34 52.56 52.51 52.28
39.71 38.06 35.53 37.74 38.86 41.90 41.94 43.43 43.90 44.28 45.65 46.63 46.53 44.14 43.32 43.85 44.74 50.00 51.54 53.89 54.74 53.82 53.33 53.23 53.59 52.47 51.65 51.92 51.62 52.16 52.23 52.39 53.02 53.29 55.23 55.03 54.78 55.46 55.84 54.70 53.49 46.93 55.86 55.96 56.89 56.87 56.24 55.72 54.80 54.30 53.60 53.17 53.54 53.89
37.92 40.05 39.31 37.39 39.73 41.33 43.81 44.66 45.25 47.85 48.65 47.67 45.06 44.91 46.79 50.35 51.67 51.54 53.07 54.45 55.03 52.32 50.72 49.75 49.99 51.73 52.62 53.28 52.74 52.30 52.38 51.79 51.29 49.41 48.67 49.07 50.48 52.27 53.10 53.57 54.07 54.38 53.36 52.49 44.19 50.48 55.57 54.95 55.18 55.03 54.68 54.37 54.70 54.94
38.39 40.73 38.70 39.99 40.98 41.72 46.07 49.18 48.68 49.67 49.64 49.76 50.33 49.82 49.29 50.51 52.68 54.33 53.84 52.14 50.94 49.83 50.02 50.30 50.42 50.66 50.30 50.13 49.50 51.20 52.11 52.32 51.51 50.89 48.44 49.14 51.27 52.96 53.49 53.50 54.01 54.13 54.11 53.09 50.63 50.87 45.42 51.11 50.10 53.37 52.92 53.42 53.29 53.07
41.71 43.08 42.65 43.97 45.01 47.02 49.40 49.40 49.74 50.21 50.59 49.56 50.37 48.69 48.50 49.98 51.18 51.60 51.51 50.47 49.50 47.66 47.76 47.90 48.00 49.83 50.85 50.57 50.12 50.69 50.41 52.49 53.54 53.70 53.02 53.01 53.97 54.76 55.15 55.28 54.91 54.30 53.17 50.49 49.12 49.74 50.60 51.19 51.69 52.52 52.68 52.46 52.78 51.46
43.68 44.21 45.30 44.07 45.30 46.54 50.45 49.39 48.80 47.83 47.49 47.91 47.32 47.42 48.59 47.20 46.03 47.90 49.76 49.64 48.54 48.56 46.93 47.62 48.68 48.23 48.47 48.79 49.70 51.06 45.63 52.87 53.73 54.16 54.43 54.16 54.79 55.26 55.48 54.77 53.73 53.36 53.10 51.79 49.76 50.05 51.87 50.92 50.15 50.82 51.45 52.30 52.84 52.74
44.61 46.74 46.47 44.25 43.27 46.62 48.63 48.92 47.72 47.02 46.40 45.66 46.37 48.62 47.86 47.15 45.72 47.96 49.53 50.28 50.14 49.52 49.12 48.63 48.18 48.62 48.92 49.88 50.71 50.60 47.94 51.31 47.67 42.71 43.59 44.13 44.98 48.60 53.30 53.62 53.52 54.06 53.06 51.09 51.82 51.05 52.32 52.23 51.92 51.95 51.36 51.21 51.27 51.17

GFSWCAN_sfc_wetblb_165.txt.gz
Wetbulb
52.45 52.44 52.38 52.42 53.10 54.88 55.63 56.33 56.39 57.13 57.69 57.36 56.24 55.01 54.73 54.71 54.46 53.53 52.30 53.68 51.96 49.04 50.12 52.42 53.55 50.99 50.60 49.93 46.55 49.61 48.33 51.53 51.90 46.71 46.76 47.25 46.90 47.59 48.19 49.30 49.30 49.40 47.59 46.98 46.24 44.81 41.97 54.75 55.95 51.82 56.04 57.98 57.80 58.78
52.14 52.12 52.15 52.05 53.23 54.99 55.99 56.35 55.85 55.63 55.53 55.25 54.64 54.58 54.66 54.76 54.60 53.13 49.06 53.49 54.32 49.69 49.59 52.95 53.73 55.06 54.69 53.88 51.13 51.28 49.51 48.82 49.82 48.53 48.60 47.30 46.32 47.88 49.55 46.14 49.37 47.53 50.94 49.90 50.16 49.39 54.77 57.96 57.40 58.87 58.30 57.08 58.91 59.82
51.62 51.58 51.74 52.22 53.66 55.21 55.21 55.03 54.64 54.34 54.15 53.99 53.92 54.17 54.13 54.25 54.39 53.13 49.98 51.94 51.75 48.12 48.29 49.20 49.77 54.48 55.72 53.97 56.84 47.82 51.01 52.08 51.67 52.15 48.61 48.62 48.45 49.59 47.35 48.48 50.50 50.20 51.14 51.51 50.47 52.64 52.91 54.75 58.27 58.54 59.09 58.91 60.07 61.29
51.25 51.50 51.64 52.30 53.61 54.91 54.20 53.89 53.81 53.58 53.52 53.85 53.94 53.86 53.99 54.01 54.05 53.54 51.00 51.61 50.95 48.29 42.82 46.48 54.27 52.11 56.44 55.76 54.16 53.73 53.29 54.56 54.09 52.27 48.05 48.45 47.44 49.38 49.40 51.95 52.23 52.62 52.17 52.23 51.70 53.64 54.79 55.82 57.35 58.88 60.07 60.47 60.54 60.69
51.30 51.62 51.74 52.37 53.82 54.30 53.48 53.34 53.20 53.24 53.08 53.00 53.27 53.79 53.76 53.64 53.57 53.35 52.06 50.83 52.23 48.14 42.79 45.02 51.04 53.28 54.77 53.92 53.12 52.92 52.22 51.43 50.55 48.61 46.68 48.76 49.76 49.01 48.60 51.49 51.63 53.06 53.68 51.96 51.09 57.97 58.30 57.73 58.81 60.62 60.20 60.52 60.51 60.73
51.04 51.45 51.80 52.61 54.03 53.82 53.27 52.73 52.35 52.39 52.66 52.17 52.21 52.59 53.09 53.22 52.17 50.87 47.62 51.99 51.18 49.75 45.53 42.86 51.32 51.46 53.77 53.54 51.82 51.87 52.57 51.80 50.29 49.21 48.05 50.87 52.02 49.94 49.97 50.17 53.73 55.11 55.57 58.32 57.94 59.04 59.42 59.48 60.39 61.60 61.42 61.38 61.44 62.06
50.72 51.56 51.64 52.67 53.67 53.34 52.99 52.56 52.31 52.09 52.07 52.14 51.91 52.07 52.71 52.48 51.47 48.14 46.61 51.29 51.87 51.83 47.32 43.91 44.57 51.01 53.88 50.68 50.90 51.24 53.22 51.86 51.37 49.90 50.63 51.73 52.51 51.73 49.76 50.10 56.27 54.84 55.87 55.53 57.54 58.78 57.82 59.59 59.45 61.47 62.19 61.16 60.88 62.33
50.50 51.38 51.56 52.37 53.08 52.29 51.97 52.43 52.96 52.40 51.96 51.84 51.64 51.80 52.12 51.89 51.25 48.49 52.16 51.45 51.55 49.21 48.48 43.23 42.95 47.87 54.20 50.48 47.10 52.72 49.71 51.36 51.43 51.29 51.65 51.05 51.87 51.01 49.84 55.37 53.70 55.86 55.87 55.65 56.67 59.89 59.76 61.78 61.80 61.32 62.24 61.28 62.10 62.17
50.40 51.49 51.39 52.59 51.59 51.09 51.55 52.45 52.71 52.37 52.04 51.82 51.63 51.97 51.11 49.12 46.54 49.96 53.73 54.11 51.77 48.44 44.92 46.16 42.83 40.12 50.59 48.98 51.53 49.94 51.75 46.68 52.80 50.74 50.94 52.59 51.17 51.13 54.49 55.92 54.91 55.89 57.28 58.25 57.88 58.00 58.41 59.89 60.84 60.35 61.07 61.14 60.92 61.83
50.45 51.44 51.46 51.99 51.83 51.04 50.79 51.00 51.49 51.53 51.19 51.34 49.97 47.88 47.08 48.01 52.32 53.78 50.82 48.28 46.84 47.81 47.61 43.73 47.27 43.97 47.91 48.01 47.03 50.14 49.56 48.43 45.28 49.65 53.58 51.76 50.55 54.67 55.77 56.15 58.96 58.29 57.96 58.57 56.34 55.87 56.47 57.76 59.05 59.94 60.27 61.33 61.56 61.82
50.52 51.50 51.09 51.38 51.83 51.77 51.82 50.65 51.27 51.25 50.57 49.04 47.35 47.04 51.65 53.81 52.28 49.40 45.91 45.14 45.67 43.12 46.29 46.40 46.44 45.58 51.11 44.21 46.28 52.73 50.43 48.91 45.13 47.77 49.74 49.28 49.64 55.05 58.25 57.73 58.01 57.75 57.61 58.95 60.19 61.90 61.40 60.64 59.54 59.63 60.29 61.60 61.78 61.92
51.09 50.90 50.62 50.64 50.87 50.70 50.64 51.02 51.04 48.93 48.19 47.88 47.42 49.31 50.83 49.47 46.15 43.09 43.86 46.45 43.58 42.65 46.45 45.97 47.70 48.40 49.55 50.71 50.76 52.60 49.09 48.84 44.19 50.95 48.33 45.70 51.81 56.82 56.89 58.23 58.85 58.21 57.26 56.56 57.74 57.59 58.89 59.47 59.57 60.29 60.78 61.48 62.10 63.14
50.64 50.32 50.30 50.43 50.50 50.68 50.76 51.09 50.92 50.77 49.88 49.95 47.76 46.78 46.75 46.55 38.96 40.16 38.85 42.49 43.02 47.93 49.57 49.44 47.57 50.85 49.24 51.55 49.30 49.94 46.41 46.06 51.04 46.97 46.73 49.42 51.48 56.36 58.30 58.47 57.05 57.69 57.13 57.30 57.33 58.06 57.33 57.76 58.43 58.75 59.45 61.15 62.52 63.24
50.22 50.24 50.27 50.21 50.30 50.72 51.21 51.33 51.32 50.28 48.65 45.48 44.12 36.39 41.41 40.53 42.20 43.14 44.45 46.49 50.11 50.27 49.73 49.25 48.08 50.12 51.13 48.19 48.27 44.48 47.01 48.72 45.45 44.20 45.46 50.38 53.62 55.07 58.24 58.16 57.37 57.07 57.35 57.67 57.79 57.73 57.87 58.62 59.18 59.75 59.38 60.58 61.67 62.38
50.12 50.26 50.73 50.68 51.09 51.24 51.11 50.89 50.63 50.57 46.79 43.64 44.39 37.73 41.61 45.87 46.17 47.38 49.30 49.94 51.84 52.53 50.32 49.72 50.23 50.24 48.63 47.31 48.70 46.37 43.37 41.34 44.92 45.80 49.24 54.05 54.46 56.09 57.74 58.90 58.16 56.80 57.21 57.79 57.96 57.89 59.02 59.98 59.16 59.44 60.40 60.40 61.02 62.53
49.97 49.69 48.99 50.16 50.67 51.27 50.84 50.62 49.90 48.97 47.00 44.35 43.86 42.01 45.76 45.75 46.80 47.65 47.89 47.91 51.37 52.77 52.51 50.51 48.08 46.20 45.57 47.02 44.16 44.21 43.30 41.86 46.79 51.59 55.09 55.90 56.21 56.17 57.27 58.65 59.36 60.10 60.81 60.44 59.38 58.48 58.53 59.01 59.37 59.81 59.48 59.90 60.23 61.70
48.75 46.89 50.57 50.68 50.56 51.14 50.44 48.59 47.45 45.03 44.71 43.50 42.57 46.63 45.85 46.08 44.66 45.99 50.02 49.25 52.05 50.22 48.22 48.80 43.99 42.84 48.83 44.57 43.47 47.57 46.79 50.89 54.21 53.84 55.33 55.67 56.20 56.73 57.54 58.28 58.62 59.55 59.76 60.19 60.68 61.02 60.60 58.77 58.19 59.01 59.82 60.77 60.08 61.07
47.35 50.53 52.03 51.29 50.77 50.00 48.47 47.92 46.71 45.76 42.55 44.82 43.32 45.73 46.85 48.55 48.18 48.33 50.16 51.04 49.86 48.97 49.23 47.17 49.41 45.66 43.60 41.70 44.21 50.09 52.91 54.06 55.29 55.41 54.83 55.24 55.98 56.75 56.49 57.53 57.61 58.74 59.46 59.72 59.59 60.17 60.56 61.30 60.70 60.26 60.77 60.48 59.74 60.17
49.09 49.52 51.19 50.89 50.64 48.75 45.25 45.64 46.96 42.26 44.40 46.62 47.29 47.65 47.58 48.59 50.31 50.82 50.83 51.46 51.38 52.17 50.92 50.12 46.70 45.03 45.61 48.30 48.83 52.06 53.47 54.62 55.04 54.75 55.66 55.84 55.77 56.04 56.60 57.58 57.55 57.91 58.23 58.53 58.91 58.68 58.84 59.30 59.37 60.16 60.65 60.37 59.78 60.86
49.74 50.03 50.26 51.49 51.47 47.79 45.69 46.73 48.82 44.50 43.00 46.32 47.16 46.57 46.95 48.48 49.82 50.19 50.44 49.95 49.26 49.48 48.42 46.83 47.21 48.98 50.36 53.72 53.74 53.08 54.86 54.21 54.56 53.31 54.23 55.76 56.39 55.57 56.14 56.29 56.61 57.48 57.94 58.33 58.14 52.46 57.70 58.25 60.04 59.91 60.13 59.80 60.14 60.82
49.40 50.10 50.62 51.51 49.73 48.56 46.56 46.02 45.76 47.54 48.05 46.67 48.50 47.46 47.64 48.29 47.85 47.92 47.97 48.12 46.99 46.50 45.64 49.00 50.22 52.34 52.69 53.08 53.87 54.73 54.80 55.07 54.78 55.20 55.16 55.16 56.81 56.57 56.64 57.64 57.84 58.35 57.59 56.77 56.50 56.66 54.96 57.37 58.24 59.17 59.37 59.90 61.13 61.49
50.46 51.24 49.57 49.77 47.27 47.45 46.02 47.92 45.17 47.22 45.24 46.27 46.00 46.99 45.56 45.12 45.56 46.54 48.58 46.08 46.43 47.79 48.79 49.20 50.09 51.19 51.79 52.27 54.05 55.15 55.99 55.28 55.89 55.44 50.00 51.94 55.62 55.38 56.38 56.46 56.34 57.39 57.91 57.90 57.15 57.30 57.68 58.54 58.73 58.61 59.05 59.80 58.29 60.73
49.89 49.90 48.42 47.57 44.05 42.45 42.03 48.04 45.14 46.08 42.94 44.51 46.85 45.62 45.88 45.76 47.53 49.92 46.02 47.98 47.87 50.66 50.96 50.76 52.33 52.71 51.42 52.84 53.29 53.93 54.32 54.72 54.47 55.13 56.11 56.45 56.83 57.33 57.14 57.30 58.74 59.26 58.21 58.90 58.92 58.24 57.74 51.19 56.64 57.69 59.40 60.15 57.42 58.00
48.82 47.27 44.72 44.29 43.07 39.84 45.03 43.26 45.03 44.53 45.84 44.72 44.36 42.75 44.65 47.11 50.09 47.70 44.04 47.47 51.65 54.31 53.60 54.42 53.69 51.58 51.75 52.02 51.80 52.81 54.18 55.32 55.21 56.33 56.67 56.01 55.51 57.72 57.59 57.46 58.37 58.83 58.75 58.08 56.88 58.06 58.65 58.73 52.21 58.43 58.46 58.60 57.32 59.41
41.26 39.79 40.93 35.74 43.01 42.57 42.01 42.32 42.37 42.93 40.64 43.10 42.43 43.57 45.95 48.94 45.14 45.12 44.88 48.82 49.51 50.91 53.48 53.72 54.00 53.23 51.31 52.48 53.35 54.25 55.44 54.74 54.39 54.45 56.74 56.28 57.18 57.14 57.18 57.80 58.09 58.28 57.20 55.27 55.49 56.49 58.04 58.18 57.94 57.65 57.95 58.11 58.03 57.72
35.70 40.28 37.55 41.41 41.61 40.57 41.52 40.25 41.93 42.70 43.63 43.53 45.24 47.48 48.69 47.34 44.85 43.60 46.88 48.82 50.77 52.15 53.42 53.76 54.39 53.74 53.60 54.78 54.66 55.53 55.52 56.12 56.01 55.44 54.54 54.05 56.58 56.55 56.64 55.83 55.31 56.29 58.11 58.00 56.75 55.38 55.99 56.35 56.29 56.14 56.60 54.11 47.40 56.70
36.06 37.82 41.45 44.30 43.33 43.97 43.91 45.55 45.95 44.71 43.21 43.50 45.38 46.43 45.99 42.24 42.67 47.40 51.31 52.58 52.64 54.71 56.07 56.66 56.52 55.96 55.20 55.60 56.28 56.89 57.03 57.05 57.21 56.85 57.97 58.00 56.65 56.52 56.75 54.59 54.70 57.69 60.01 58.88 58.16 56.78 55.54 54.59 54.63 54.99 55.02 55.50 55.85 56.38
41.76 41.54 38.23 41.97 42.93 45.40 43.26 43.39 43.86 44.00 46.02 48.24 47.46 43.88 43.01 43.63 45.29 50.76 52.65 54.67 55.15 56.27 56.46 56.81 56.42 57.53 58.00 57.41 57.53 57.48 57.25 57.96 58.05 58.12 57.75 57.73 56.29 58.05 58.90 58.57 57.37 46.42 57.96 58.24 58.48 57.24 56.40 55.63 54.42 54.15 53.67 53.14 53.49 54.50
40.93 43.65 43.22 40.19 42.06 43.47 44.46 44.22 45.20 47.79 50.77 48.50 46.00 45.33 47.41 51.57 52.51 53.59 56.58 57.41 58.35 57.42 56.59 56.04 55.90 57.91 57.90 58.20 58.03 57.88 57.90 57.80 56.31 54.63 53.60 52.67 54.27 56.36 58.69 59.31 58.99 58.00 58.23 57.96 45.38 51.63 56.01 56.49 56.60 55.69 54.74 53.79 52.96 53.66
40.91 44.03 41.70 42.01 42.63 43.63 46.57 48.66 49.94 51.99 50.58 51.17 51.72 51.69 52.62 54.44 56.46 57.86 57.20 56.99 56.22 56.11 56.55 57.43 57.73 57.79 55.79 54.87 54.99 56.20 57.28 58.11 57.71 55.93 54.21 53.25 54.44 57.21 58.30 58.50 58.49 58.34 58.06 57.86 57.56 56.68 46.70 54.67 52.51 56.61 54.69 53.97 53.08 52.44
44.81 44.31 43.22 44.12 45.17 49.12 50.83 51.83 52.73 51.39 53.18 51.03 51.79 50.10 51.77 53.82 56.10 57.52 57.10 56.52 55.15 54.94 55.59 55.61 56.22 57.28 57.11 54.98 53.91 53.73 54.61 57.40 57.87 58.01 58.27 57.88 57.98 58.41 59.20 59.41 59.30 58.47 56.76 56.14 57.12 56.72 56.24 56.02 56.24 56.17 55.80 55.37 55.04 53.68
44.31 43.85 45.72 44.16 46.50 49.93 51.65 50.89 50.05 49.78 50.75 50.64 50.34 53.01 53.91 53.02 51.65 54.85 56.67 56.41 55.52 54.36 49.42 53.92 54.99 54.31 55.42 56.82 57.36 57.21 49.71 58.00 58.43 58.60 58.80 58.60 58.95 59.24 59.58 59.60 59.01 58.48 56.78 55.48 55.77 55.98 55.82 55.39 55.89 56.09 56.09 55.56 55.93 55.86
45.46 47.41 47.09 46.48 46.66 47.08 49.37 49.33 49.51 48.91 49.63 50.55 50.96 52.24 53.26 52.60 50.21 54.42 55.79 56.46 56.73 55.60 55.08 54.94 55.29 55.60 56.35 57.34 57.65 56.59 52.65 56.91 49.82 41.89 44.05 44.79 45.11 50.42 58.29 59.50 59.15 58.90 57.95 56.50 56.96 56.15 55.91 55.86 55.47 55.29 55.19 55.06 54.80 54.62

GFSWCAN_sfc_wetblb_168.txt.gz
Wetbulb
52.81 52.68 52.68 52.50 52.58 53.12 54.57 56.09 56.69 56.93 57.33 57.41 56.88 55.63 55.15 55.22 54.55 54.32 57.15 58.95 55.07 52.21 54.82 55.62 55.72 53.92 54.16 53.30 49.54 53.44 52.27 53.54 54.10 50.51 50.36 51.56 50.45 52.44 51.82 53.65 52.67 51.33 49.98 49.20 50.42 48.08 45.77 58.01 58.18 53.12 58.39 61.22 60.56 60.73
52.36 52.13 52.15 52.25 52.41 52.77 54.59 55.77 55.62 55.54 55.44 55.44 54.80 54.68 54.78 54.84 54.63 54.04 54.45 58.36 55.81 52.17 53.66 57.00 56.56 57.81 56.73 56.37 53.95 54.29 53.50 52.37 54.47 52.69 53.71 53.43 51.33 54.68 52.82 49.07 55.31 50.44 54.03 52.23 52.74 52.18 59.48 60.31 59.91 61.83 61.35 59.78 61.35 62.27
51.84 51.69 51.80 52.04 52.40 52.93 55.22 54.86 54.57 54.43 54.33 54.24 54.14 54.20 54.33 54.47 54.47 54.48 55.04 57.48 54.80 50.63 52.07 53.57 53.56 56.89 58.74 57.74 58.28 51.89 55.25 55.43 54.30 55.77 53.22 53.16 51.38 54.12 49.28 51.55 53.31 55.08 56.80 53.45 54.41 56.35 57.63 59.76 61.80 61.69 62.86 62.09 62.94 63.78
51.32 51.47 51.94 52.25 52.42 53.47 54.98 54.02 53.74 53.61 53.66 53.84 54.16 54.16 54.22 54.04 54.19 53.88 53.33 57.17 54.49 51.83 47.05 50.22 56.44 54.62 58.21 58.25 57.88 57.48 56.80 57.06 57.32 55.77 52.83 52.66 51.68 55.49 53.40 55.09 54.36 56.39 56.79 55.91 55.28 58.22 58.87 59.33 61.47 62.05 62.64 63.12 63.10 64.69
51.04 51.14 51.74 51.97 52.30 53.69 54.25 53.41 53.31 53.23 53.06 53.10 53.38 53.45 53.90 53.84 53.74 53.63 55.29 54.96 55.16 51.09 47.04 48.88 54.18 57.14 57.35 57.26 56.08 56.66 55.14 52.63 53.14 52.03 51.77 50.93 55.18 52.21 53.13 56.21 54.19 57.97 56.74 54.70 52.54 59.54 58.85 59.84 61.51 63.61 62.78 62.68 63.40 63.52
50.61 51.00 51.59 52.17 52.51 54.16 53.85 53.23 52.71 52.44 52.40 52.27 52.12 52.45 52.91 53.29 52.64 53.72 51.43 54.74 53.55 53.07 47.77 44.44 54.59 53.88 56.41 57.68 55.87 54.99 53.84 52.03 52.09 51.53 50.97 51.90 55.99 54.29 51.92 51.95 57.19 59.33 60.84 60.69 58.32 61.73 60.23 61.97 63.13 64.59 63.28 63.53 64.13 64.88
50.32 50.79 51.44 51.83 52.55 53.70 53.35 52.92 52.73 52.36 52.14 52.10 52.26 51.76 52.10 52.47 52.51 51.60 50.55 51.78 53.11 53.41 46.99 44.34 49.44 51.49 53.79 56.09 56.23 54.17 53.04 52.70 53.55 51.97 50.40 51.94 54.81 53.89 53.31 51.22 57.66 59.95 60.71 61.47 63.19 63.34 61.18 62.27 61.98 64.47 64.41 64.03 63.10 65.07
50.07 50.57 51.44 51.93 52.79 52.10 51.92 52.12 52.60 53.05 52.49 52.03 52.01 51.89 51.99 52.02 51.48 51.43 55.64 52.08 53.54 50.75 49.83 45.72 46.93 48.46 51.68 49.91 50.39 53.22 51.30 53.25 52.08 51.59 53.68 53.00 54.24 53.72 51.64 56.46 58.53 60.64 60.69 60.58 62.41 62.37 62.02 63.90 64.39 64.52 64.83 64.73 63.55 63.21
49.92 50.51 51.41 51.86 52.22 51.49 51.16 51.43 52.31 52.21 52.02 52.01 51.55 51.89 52.65 50.55 50.66 53.73 54.34 53.63 52.01 49.63 45.73 47.23 44.36 42.59 49.79 48.94 49.78 51.63 53.26 49.01 54.41 50.00 51.75 55.17 53.82 50.58 55.64 57.78 59.04 60.46 60.28 60.15 61.48 62.09 62.68 63.02 63.56 63.99 63.63 64.08 64.06 63.71
49.69 50.65 51.51 51.51 52.36 51.39 51.22 50.78 51.34 51.55 51.51 51.31 50.13 48.54 48.87 53.89 53.08 53.90 52.35 48.97 47.33 47.46 47.04 43.34 48.71 45.20 48.81 48.16 46.54 50.22 52.05 49.30 47.12 50.62 54.74 52.20 52.72 58.22 58.14 58.73 60.31 61.68 62.06 61.91 59.75 59.79 60.98 61.65 62.97 63.32 62.99 63.66 63.98 65.20
49.75 50.66 51.53 51.24 51.86 52.21 52.03 51.43 50.87 51.27 50.76 49.26 47.42 47.94 53.97 54.01 53.08 51.19 47.69 46.33 46.24 44.31 46.67 47.56 47.18 46.28 51.46 44.36 45.10 49.88 50.83 51.32 46.27 50.29 50.60 50.60 50.86 56.03 59.76 60.32 61.74 61.63 62.30 62.75 62.58 62.36 62.29 62.02 62.72 63.01 63.09 63.41 63.43 64.31
49.84 51.20 50.85 50.73 50.80 51.14 51.07 51.17 50.90 50.43 49.03 48.20 47.48 50.71 54.28 51.74 49.17 45.44 45.28 48.29 44.90 43.06 48.57 46.49 47.22 48.25 50.68 51.25 47.22 50.01 49.52 50.28 45.57 53.65 50.94 48.96 54.66 60.36 60.38 60.64 61.61 62.62 61.08 60.76 61.82 62.09 62.32 62.27 62.43 62.95 63.63 64.21 64.37 64.86
50.23 50.89 50.51 50.53 50.56 50.63 50.69 51.08 50.88 51.00 50.79 52.01 49.18 47.50 47.42 48.48 40.45 41.35 40.20 42.56 43.10 48.29 49.48 49.73 47.46 50.33 50.95 50.85 48.51 49.56 47.19 47.16 53.83 49.52 47.58 51.21 55.84 59.38 61.91 62.23 61.49 62.88 61.63 61.00 60.58 61.93 61.72 63.02 63.66 63.32 63.27 64.52 65.35 65.51
50.62 50.49 50.37 50.22 50.35 50.58 50.76 51.35 51.12 50.82 50.37 46.47 45.28 38.31 43.81 42.28 44.45 44.27 46.28 48.70 51.97 51.95 50.31 49.67 48.39 48.95 50.85 47.40 47.12 43.97 48.48 49.73 46.53 44.87 46.66 53.75 57.22 59.53 61.37 62.27 61.94 61.97 61.00 60.94 61.40 61.46 61.48 62.50 62.82 63.45 63.29 64.25 64.35 64.96
50.36 50.45 50.62 50.74 50.98 51.09 51.24 51.21 50.55 52.00 48.49 44.44 45.92 40.04 43.43 48.53 51.23 51.38 51.98 51.82 53.65 53.10 51.19 51.12 51.46 51.44 47.49 45.78 47.91 46.40 43.95 42.37 47.12 47.87 52.63 56.85 58.95 60.65 61.18 61.95 61.50 61.64 61.21 61.43 62.19 61.95 61.94 62.33 62.81 63.48 64.08 64.44 64.65 65.44
50.21 49.65 50.52 50.24 50.63 51.39 50.92 50.83 51.42 51.89 48.62 45.02 44.94 44.17 48.75 48.28 48.73 50.27 49.96 49.97 53.15 54.29 53.05 52.60 48.64 46.30 46.22 47.22 44.74 44.41 43.91 42.15 48.69 54.73 56.88 58.74 59.20 60.09 60.96 62.06 62.62 63.45 63.26 62.98 62.19 62.82 62.61 62.95 63.33 64.10 64.78 64.40 64.48 64.97
48.78 48.20 50.35 51.25 50.95 51.24 50.77 49.84 49.45 45.91 44.78 44.08 45.73 49.69 48.97 49.52 49.30 49.91 51.17 51.38 52.79 51.47 48.41 49.28 45.74 45.09 50.30 46.84 45.53 50.01 47.72 52.42 55.88 57.04 58.09 58.82 58.52 58.39 60.90 61.14 61.76 62.22 62.54 63.27 63.90 64.19 63.07 62.72 62.88 63.34 63.27 64.34 64.40 65.17
48.34 51.09 51.93 51.05 51.21 50.23 50.22 48.91 47.76 46.88 43.25 47.13 46.01 49.47 50.43 50.57 50.10 50.33 50.95 52.74 50.92 49.86 50.20 47.55 50.74 46.95 45.54 42.72 45.73 50.79 53.34 56.96 58.61 57.09 56.14 57.16 58.61 59.66 60.40 60.81 61.13 61.81 61.97 62.63 62.85 62.89 63.30 63.92 63.82 63.43 64.39 65.19 64.32 64.54
49.35 50.33 51.55 51.01 51.28 49.99 47.34 48.08 49.37 43.71 46.62 49.16 50.21 50.82 51.14 51.26 52.92 53.81 54.10 54.71 55.21 55.16 52.83 52.25 48.54 47.97 48.32 47.70 49.25 51.86 55.55 56.83 56.67 58.24 57.92 58.83 59.66 59.69 60.39 60.88 61.39 61.26 60.84 60.76 60.71 60.26 61.44 62.92 62.65 62.76 63.51 64.44 63.17 63.77
49.62 50.09 50.65 51.34 51.20 47.69 45.80 48.18 52.09 46.85 45.46 49.10 50.88 49.82 50.93 51.42 53.41 53.93 53.72 54.09 53.55 52.83 49.90 48.80 49.15 52.34 53.34 56.21 54.35 54.45 55.89 56.31 56.82 55.80 56.11 56.72 58.24 60.05 60.46 60.18 59.71 60.97 60.23 60.17 59.58 54.29 59.54 59.76 60.63 61.03 61.56 61.50 62.03 62.32
49.56 50.78 50.74 52.07 50.79 49.81 48.80 49.11 46.42 48.99 50.04 48.98 51.89 51.29 49.58 52.22 50.84 50.77 51.19 54.78 50.58 49.00 48.28 50.99 51.58 53.48 56.88 57.68 56.01 56.37 55.36 57.28 53.70 54.74 54.71 58.56 59.96 60.15 59.92 60.34 59.97 59.72 58.76 58.30 58.16 57.83 56.57 59.21 60.10 60.37 60.31 60.62 62.26 63.33
51.60 51.29 51.62 51.91 48.72 49.32 47.96 50.90 48.35 50.29 48.56 49.15 49.19 50.76 48.55 48.59 49.15 50.87 53.77 49.94 50.07 51.72 53.35 53.16 52.73 53.49 54.48 55.09 55.52 57.23 58.09 58.59 58.31 56.40 50.68 53.33 58.42 58.94 60.01 60.39 59.17 58.47 59.28 59.66 59.43 59.20 59.55 60.36 60.32 60.37 60.48 61.00 59.22 63.12
50.17 51.12 50.34 49.35 45.34 44.32 43.66 52.42 46.67 48.85 45.71 47.15 49.84 46.99 47.83 48.11 49.26 50.98 49.49 50.09 51.53 53.82 54.51 54.79 56.19 57.71 57.45 57.98 58.18 57.29 58.72 58.19 56.80 57.06 58.10 59.05 60.30 60.37 60.14 60.30 60.69 59.86 57.66 59.64 61.38 60.05 59.90 53.06 58.73 60.03 60.96 61.14 62.07 61.04
49.15 48.12 45.06 44.84 45.05 42.24 49.32 46.47 49.09 47.56 48.19 45.29 43.91 42.67 44.88 47.70 50.98 47.29 45.65 49.72 52.52 54.00 54.26 55.87 57.20 56.75 56.33 56.43 55.57 55.99 56.21 56.79 56.31 57.10 58.38 57.70 56.63 58.15 59.92 59.67 60.57 61.74 61.72 61.31 60.55 60.49 60.85 60.67 53.95 60.66 60.86 60.68 61.29 60.28
42.06 41.11 42.99 38.09 45.20 43.49 42.90 44.08 44.41 43.87 40.70 42.32 41.78 43.04 46.17 48.76 45.80 44.84 44.98 48.81 50.84 52.22 53.85 54.99 57.39 57.31 53.84 55.58 57.62 57.44 58.23 56.82 55.20 54.89 57.58 58.56 58.26 59.08 58.86 60.55 60.81 60.65 60.46 59.58 57.02 57.93 58.72 60.14 60.39 60.33 60.23 60.32 60.21 59.12
35.53 43.07 39.47 43.43 44.26 42.85 44.51 41.02 41.80 42.19 43.10 43.01 44.55 47.87 48.90 47.26 44.86 43.75 46.93 50.35 51.45 52.44 54.27 55.06 54.68 54.70 57.14 57.07 56.22 58.51 59.28 60.79 60.32 57.99 59.44 59.21 57.42 58.29 57.57 57.30 58.08 58.71 61.13 60.13 58.72 56.89 56.56 57.58 57.92 57.44 56.41 55.36 48.37 56.26
36.74 40.64 46.47 48.84 46.74 47.06 45.37 47.15 46.09 44.37 43.11 44.07 46.52 47.08 47.17 42.63 43.01 47.51 52.25 53.81 55.02 56.99 58.58 59.21 59.56 58.67 58.26 59.23 60.50 60.17 61.08 61.25 61.12 60.11 60.51 60.19 58.94 58.88 57.74 55.70 55.41 58.01 60.48 59.83 59.32 58.09 56.60 55.68 55.38 55.26 55.45 55.83 56.37 56.49
43.28 44.43 40.59 45.80 46.15 48.44 44.35 44.36 43.37 43.87 45.86 49.23 48.10 44.03 44.08 44.63 45.15 51.46 53.20 57.27 58.59 59.55 59.96 60.01 60.08 59.37 59.19 59.54 59.89 59.83 60.22 60.84 60.49 59.27 59.73 59.02 59.91 60.74 60.61 60.13 59.96 48.18 58.41 59.08 58.86 59.03 57.86 55.94 55.18 55.16 53.86 53.49 53.94 55.28
43.37 47.52 46.48 43.12 44.54 45.62 44.65 44.06 45.13 48.03 50.49 49.07 46.70 46.74 50.16 55.13 57.03 57.32 58.68 59.22 60.57 60.45 58.29 56.61 58.26 58.91 58.79 59.64 60.44 60.98 61.03 60.21 58.79 55.42 53.34 54.67 55.59 57.40 59.67 59.45 59.37 59.53 59.37 58.86 44.01 50.80 56.82 57.00 56.89 56.36 55.66 55.04 53.92 52.64
43.56 47.35 44.34 43.77 43.49 43.09 47.06 49.75 49.76 52.42 52.78 52.78 54.22 54.91 56.59 57.80 59.88 61.45 61.02 60.52 59.43 57.87 58.31 58.53 57.57 55.84 55.07 55.99 56.97 58.14 59.82 60.97 58.47 56.00 54.94 54.45 55.74 58.48 59.10 58.79 58.79 59.28 59.76 59.20 58.80 58.39 47.08 55.88 52.95 57.03 55.85 55.94 55.42 55.19
48.87 47.66 45.25 46.84 46.93 51.28 52.46 54.26 55.86 54.19 53.35 55.19 56.47 54.59 54.68 57.35 58.06 60.01 60.15 59.92 59.62 59.24 59.11 57.70 57.02 56.88 55.46 55.46 55.56 56.35 56.80 59.48 59.85 59.22 58.84 58.70 58.73 58.77 58.77 59.08 59.52 59.24 59.29 59.73 59.90 58.89 59.03 58.15 58.24 57.34 57.00 56.57 56.27 55.22
46.71 45.90 47.36 45.23 47.82 53.31 54.57 53.20 54.64 52.74 53.57 54.43 54.59 55.91 56.85 55.72 52.41 55.74 59.35 58.73 55.96 55.94 51.39 56.39 56.81 56.90 57.97 58.04 58.23 58.80 51.17 59.31 59.67 59.85 59.11 58.44 58.52 59.11 60.06 60.00 59.79 59.23 58.92 58.73 58.62 58.10 57.77 57.30 57.72 58.02 57.76 57.18 57.24 57.27
47.42 49.93 49.19 47.62 49.57 48.20 50.48 52.64 51.96 51.25 52.49 52.12 53.39 55.52 55.63 52.60 50.49 55.64 60.07 60.49 57.05 56.21 56.75 58.32 60.15 60.74 60.90 59.73 59.39 58.46 54.57 59.75 53.93 43.83 46.51 45.58 45.03 49.76 57.99 60.69 60.60 60.26 59.01 59.13 58.57 58.28 57.73 57.37 56.98 57.18 57.17 57.16 57.14 57.20

GFSWCAN_sfc_wetblb_171.txt.gz
Wetbulb
53.10 52.91 52.89 52.73 52.77 52.87 53.12 54.21 56.07 56.39 56.76 57.00 57.20 56.41 55.36 55.43 55.08 55.50 57.64 62.27 56.90 52.71 56.16 56.36 57.52 55.60 55.16 55.63 52.26 54.05 54.93 56.37 54.18 51.52 51.06 51.56 51.50 53.58 52.22 53.97 53.82 52.81 51.32 50.38 51.40 49.54 47.35 59.15 57.79 52.99 58.96 61.16 61.63 62.06
52.61 52.54 52.35 52.19 52.39 52.66 53.01 54.45 55.71 55.32 55.28 55.49 55.06 54.87 54.94 55.09 54.92 54.39 53.66 59.60 60.35 54.01 54.81 59.28 59.27 59.60 58.78 58.50 55.65 56.03 54.93 55.78 56.60 53.85 54.03 53.93 51.97 54.27 54.00 49.41 57.33 52.54 54.79 52.72 53.62 52.66 59.83 60.09 59.63 61.11 61.30 59.45 60.85 61.76
52.22 52.11 51.92 52.01 52.56 52.58 52.60 54.23 54.82 54.49 54.49 54.49 54.35 54.37 54.60 54.66 54.72 54.04 53.73 56.60 55.67 53.73 54.81 56.02 55.63 59.24 60.39 59.02 59.40 52.56 56.21 57.22 57.14 58.65 55.18 55.42 53.18 56.08 51.15 50.45 52.10 57.67 58.97 55.76 56.00 57.68 58.73 58.99 61.89 61.67 62.01 60.77 62.98 64.71
51.82 51.44 51.46 51.90 52.30 52.54 53.37 54.98 54.13 53.88 53.70 54.06 54.21 54.41 54.47 54.21 54.17 54.06 53.18 56.47 56.34 53.65 49.41 53.11 58.46 56.38 59.01 59.31 59.06 58.81 57.35 58.86 59.02 58.33 54.82 53.89 53.30 57.49 53.68 54.86 54.53 56.99 58.99 56.59 56.17 58.43 59.06 59.38 61.22 61.51 61.48 62.49 63.81 65.55
51.08 51.01 51.16 51.76 52.05 52.34 53.50 54.21 53.74 53.33 53.16 53.06 53.24 53.47 53.90 54.06 53.87 53.64 55.21 57.25 58.10 52.69 49.14 50.91 55.17 58.04 59.43 59.06 58.49 58.90 57.60 56.40 54.96 54.12 53.49 52.21 56.27 56.44 56.69 55.86 54.15 56.45 57.42 54.83 53.74 60.21 59.83 59.99 61.66 61.96 61.33 62.28 64.08 64.84
50.71 50.87 51.02 51.52 52.46 52.59 54.32 54.04 53.33 52.96 52.58 52.73 52.27 52.32 52.60 53.08 53.35 53.20 51.11 58.23 60.00 56.89 49.79 46.67 55.37 55.53 58.02 59.19 58.81 57.19 57.07 56.39 54.54 53.98 52.71 55.13 58.68 55.41 53.04 52.15 57.41 55.93 60.73 60.97 58.08 62.14 61.46 62.31 61.78 62.37 62.06 63.11 64.55 65.73
50.73 50.62 50.85 51.23 52.31 52.82 53.84 53.59 53.01 52.79 52.61 52.42 52.07 52.03 51.89 52.18 53.37 50.08 50.02 52.35 54.54 58.08 50.57 45.73 50.94 54.43 56.16 54.20 56.96 55.07 55.54 55.64 53.89 53.29 52.36 53.25 55.47 55.99 54.46 51.46 58.10 59.54 60.94 61.51 62.24 61.37 60.16 60.84 60.46 62.43 63.11 64.01 63.84 66.04
50.14 50.24 50.58 51.56 51.85 52.55 52.01 52.41 52.55 52.74 53.23 52.72 52.19 52.01 52.21 51.93 51.45 50.36 55.94 51.90 55.27 52.52 51.10 44.76 48.60 51.65 55.73 49.25 49.98 55.76 52.49 52.92 51.98 50.61 51.86 50.75 54.56 55.59 53.12 57.92 56.39 60.22 61.18 62.06 61.91 61.66 61.70 62.44 62.97 62.92 63.78 63.89 63.79 64.20
49.78 50.10 50.52 51.46 51.77 52.20 51.31 51.01 51.67 52.04 52.10 52.10 51.81 51.86 51.60 51.53 49.40 53.25 54.76 53.76 53.83 49.72 47.03 47.34 45.87 44.14 54.32 49.27 50.11 51.51 53.98 46.85 52.38 49.97 50.43 50.78 51.23 51.39 56.09 59.18 58.72 60.26 60.68 61.26 62.31 61.29 62.00 61.58 62.15 62.84 62.93 63.06 62.65 63.34
49.70 49.87 50.80 51.53 52.00 52.39 51.44 51.08 51.17 51.73 51.77 51.68 51.50 49.46 46.57 53.73 54.84 55.39 52.41 49.70 46.36 47.19 46.83 43.41 51.11 46.52 49.11 49.35 47.12 48.45 49.95 48.10 46.71 50.41 53.44 48.33 52.50 57.43 58.07 60.35 61.50 61.72 62.20 62.77 60.81 59.85 60.85 61.24 61.93 62.05 61.63 63.19 63.97 64.26
49.58 50.04 50.77 51.55 51.59 52.46 52.22 51.96 51.32 51.36 50.93 50.14 47.55 47.68 53.35 55.15 55.10 52.61 48.70 47.50 46.93 44.44 48.54 49.65 48.48 45.78 51.72 44.20 45.23 49.45 48.81 49.39 44.94 49.21 49.29 49.89 49.26 52.71 59.34 58.64 62.17 62.97 62.89 63.63 63.18 62.35 62.19 62.83 62.58 62.10 61.98 62.84 63.65 64.42
49.54 49.97 51.25 51.07 50.87 51.54 52.08 51.73 51.40 50.04 51.25 49.04 47.77 50.07 51.09 51.64 49.72 46.85 46.35 49.30 47.72 43.59 48.94 47.71 47.94 48.75 50.37 51.47 47.52 48.29 47.64 49.97 45.11 53.97 50.50 47.88 54.60 60.49 60.96 61.65 62.20 63.71 62.46 62.90 63.29 62.38 61.85 62.57 63.60 63.38 63.45 63.18 63.57 64.57
49.44 50.40 51.06 50.64 50.60 50.85 51.18 50.97 51.16 51.07 51.01 51.55 48.51 48.69 49.12 48.33 39.91 42.11 40.60 45.74 46.22 49.96 51.66 49.90 47.67 50.21 50.29 50.07 47.19 46.47 45.93 47.16 54.38 50.31 48.90 52.93 59.15 62.17 63.08 62.63 62.50 63.47 62.98 62.36 61.71 63.25 62.52 63.01 63.80 63.87 63.52 64.36 64.41 64.52
49.61 50.83 50.81 50.84 50.82 50.87 50.99 51.10 51.16 51.21 49.63 47.22 44.64 38.81 43.36 43.33 45.69 46.92 47.50 49.10 53.35 53.10 51.94 50.51 48.73 48.29 50.30 47.19 48.15 45.19 49.02 50.07 44.90 43.99 47.09 55.91 59.98 61.95 63.02 63.13 62.52 61.10 61.64 61.18 62.28 61.85 62.34 63.20 63.33 63.90 64.00 64.86 64.51 64.89
50.13 50.70 50.77 50.66 51.19 51.18 51.35 51.70 51.19 52.11 49.99 44.98 46.42 40.51 44.46 49.46 49.39 52.04 53.16 51.19 55.95 56.20 54.32 50.89 50.60 50.54 48.17 45.87 47.91 46.70 45.86 44.25 46.47 47.30 53.53 57.85 60.79 62.66 62.97 62.80 62.19 62.68 62.60 61.36 62.82 62.89 62.63 63.37 63.89 64.02 64.71 65.90 65.65 66.32
50.63 50.21 51.72 50.69 50.55 51.60 51.33 51.47 51.46 51.65 49.41 48.29 47.64 45.99 48.52 48.61 49.54 51.86 50.35 51.37 55.78 56.60 55.64 55.23 49.19 46.69 45.65 48.24 45.97 44.36 43.24 42.58 48.10 54.44 59.58 61.06 60.95 62.39 63.48 63.89 64.46 64.83 63.87 63.43 63.74 62.99 63.38 64.04 64.03 64.80 65.70 65.67 65.82 66.38
49.25 51.72 50.68 51.22 51.25 51.48 50.96 52.30 51.17 47.29 47.03 45.31 45.91 51.19 49.78 48.92 49.74 49.65 53.13 55.76 58.44 53.32 48.71 49.01 46.13 46.04 51.82 47.63 45.76 49.07 47.37 50.78 53.14 55.35 58.57 59.95 61.00 61.94 62.56 62.82 63.33 64.06 64.69 65.27 65.19 64.88 64.82 65.22 65.58 65.22 65.03 66.13 66.10 66.51
51.93 52.25 51.72 51.27 51.58 50.84 50.36 48.56 48.48 47.50 44.06 48.23 45.83 47.94 50.45 51.20 49.80 51.30 53.53 53.71 53.35 54.21 52.07 49.14 52.33 47.41 46.32 45.23 46.75 50.67 54.21 56.00 58.21 57.81 57.95 59.74 60.78 61.97 61.93 61.85 62.42 62.87 63.27 63.46 63.95 64.71 65.38 64.79 64.47 64.30 65.98 66.17 65.47 65.52
50.75 51.47 51.63 51.12 51.43 50.40 47.96 48.98 50.49 44.55 47.25 48.54 49.78 51.87 52.35 52.46 54.09 54.35 53.82 54.55 54.96 55.12 53.15 51.07 49.30 48.95 48.48 51.02 51.61 53.60 55.71 57.20 55.08 58.60 59.54 58.99 61.53 61.59 61.76 62.32 62.34 61.92 61.99 61.83 61.90 61.26 62.44 63.85 63.53 63.78 65.75 65.54 63.74 63.75
49.49 50.14 51.26 51.23 50.92 48.00 47.05 49.00 53.75 47.87 45.52 48.60 52.49 51.35 51.83 52.01 53.03 53.49 53.67 53.41 53.51 52.08 50.52 48.36 49.16 50.48 53.91 56.12 57.72 56.83 55.56 57.36 58.20 54.88 55.40 57.09 57.47 60.40 62.34 60.47 60.45 61.69 60.94 61.49 60.72 55.13 61.04 61.21 61.53 61.68 61.73 61.48 61.45 61.63
49.58 50.90 51.16 51.83 50.89 49.58 49.13 49.54 49.22 50.70 51.31 50.76 53.49 53.22 51.59 52.99 51.69 52.27 52.32 54.06 51.85 51.30 50.04 52.55 53.55 55.26 57.88 58.13 58.63 58.82 57.32 56.36 54.24 55.85 55.11 56.07 58.05 58.21 60.65 60.98 61.68 61.17 61.06 59.63 59.12 58.77 58.54 60.31 60.76 60.60 60.64 60.80 61.66 62.59
53.26 51.73 53.98 52.68 49.82 50.21 49.69 51.59 49.40 51.28 50.03 50.42 50.86 52.28 50.15 49.33 49.90 52.15 53.82 51.71 51.69 52.85 53.81 54.38 55.58 56.54 56.74 57.41 57.53 59.43 58.64 58.40 58.40 56.42 51.65 53.07 55.01 57.38 58.94 59.08 60.00 59.33 60.19 61.19 60.74 59.52 59.39 60.29 60.85 60.62 60.51 61.06 59.05 62.09
50.58 52.15 52.41 51.53 47.14 45.94 44.54 53.22 47.95 49.03 46.12 46.56 49.78 47.60 49.14 50.01 52.18 55.85 51.34 53.63 54.12 56.76 57.09 57.84 58.67 59.85 59.19 60.30 60.59 59.66 59.57 59.30 57.84 57.78 55.90 57.49 58.68 60.40 59.74 60.53 60.91 60.84 60.12 60.07 62.01 60.26 59.57 54.31 58.93 60.09 60.89 60.53 61.04 61.61
48.63 49.27 45.95 46.40 46.48 43.28 48.63 46.90 48.46 48.13 47.97 44.91 44.44 43.88 45.20 47.76 51.46 47.79 45.16 50.73 54.23 56.76 56.94 57.20 57.85 57.60 59.07 59.67 57.09 58.23 58.70 58.64 57.85 58.15 58.68 58.09 57.54 57.99 60.08 59.79 59.62 59.52 60.29 60.40 60.25 59.99 60.03 59.90 54.91 60.10 60.69 60.83 60.93 60.76
43.78 42.16 44.75 39.20 48.48 45.68 44.76 44.64 45.41 44.10 41.41 42.82 41.87 43.10 45.94 49.24 44.97 43.77 45.05 48.97 50.49 50.98 53.34 56.53 58.51 58.49 57.30 57.04 57.46 58.03 59.98 58.34 56.53 55.54 57.36 58.31 57.99 57.96 59.03 59.09 60.09 61.18 61.67 60.47 59.84 59.88 59.57 60.14 60.60 59.65 59.00 59.24 58.75 60.65
37.89 44.62 39.95 44.17 45.45 43.97 44.01 41.99 42.03 41.91 43.04 42.69 44.26 47.86 49.01 46.98 44.55 43.37 46.80 50.02 52.47 53.62 55.23 55.77 56.20 56.27 57.23 58.77 58.66 59.24 60.46 61.14 60.12 58.15 59.04 59.59 59.13 58.27 57.51 58.10 58.80 60.24 61.94 61.52 58.86 57.18 56.49 57.09 57.11 57.11 56.82 56.86 50.51 57.62
37.70 41.21 46.02 51.46 48.83 47.85 45.80 46.61 46.00 44.24 42.86 44.33 48.14 47.90 47.41 42.96 43.10 47.49 54.21 58.36 57.31 59.00 59.99 58.36 60.10 58.98 58.06 59.09 61.80 63.17 64.63 63.57 62.65 62.31 62.64 61.34 61.27 61.10 59.79 58.68 57.44 58.92 60.51 60.61 59.84 57.83 56.97 55.92 55.38 55.04 54.93 55.48 55.61 56.02
43.99 45.59 42.39 46.18 46.72 48.30 44.69 44.79 43.57 43.69 45.48 49.34 49.16 44.62 44.27 43.79 45.77 54.13 56.86 59.30 60.32 60.87 59.51 58.89 59.04 59.29 59.13 59.40 60.12 61.16 61.76 61.93 61.54 61.27 61.45 60.75 59.83 60.25 59.37 58.71 59.25 50.19 58.93 58.55 58.54 58.54 57.60 56.90 56.33 56.00 54.74 53.16 52.61 54.85
45.06 49.28 49.17 45.49 46.33 45.55 44.65 44.25 45.11 48.07 50.84 49.66 48.86 48.16 49.58 55.12 57.09 57.18 58.44 59.78 61.76 59.50 56.72 55.84 57.13 58.98 59.65 59.72 59.74 59.84 60.86 60.01 58.08 55.87 53.99 54.38 55.97 57.06 59.73 59.99 59.57 58.80 58.54 58.85 44.91 50.66 57.04 56.88 56.93 56.42 56.00 55.46 55.28 55.47
45.71 50.12 46.35 45.36 43.68 44.78 48.61 49.31 49.24 52.46 54.23 54.41 56.31 57.23 56.65 57.89 59.06 60.61 58.91 57.78 56.41 56.35 57.67 57.00 56.42 56.95 56.80 57.61 58.09 58.20 58.95 60.51 58.41 55.36 53.41 54.25 55.16 57.58 58.07 58.23 58.47 58.57 58.71 59.00 59.09 58.29 47.57 54.41 50.10 55.72 55.45 55.45 55.94 56.39
50.91 49.64 46.69 47.53 47.65 53.62 53.86 55.94 55.81 55.53 55.39 56.48 57.68 55.84 55.21 55.01 57.50 59.41 58.55 59.23 58.74 59.28 59.62 57.15 55.92 56.53 56.90 57.17 57.26 57.59 56.30 58.77 59.69 59.24 58.77 58.39 58.17 58.10 58.24 58.62 58.65 58.49 58.99 58.69 58.53 57.73 56.16 55.65 56.08 55.71 56.09 56.08 56.82 55.03
48.22 47.18 46.63 46.75 49.92 54.93 55.29 53.14 53.94 54.56 55.83 55.27 54.96 56.13 53.87 54.48 52.26 55.83 58.54 58.08 56.70 55.85 53.53 56.48 56.00 56.24 57.71 58.42 58.77 58.88 51.63 58.81 58.88 59.02 58.57 58.56 58.52 58.78 59.57 59.26 58.98 59.06 58.99 58.09 57.82 58.82 57.36 57.21 56.56 56.91 56.25 56.29 56.48 56.88
48.26 50.02 49.89 50.24 50.44 50.13 54.62 53.78 52.95 52.49 54.02 52.70 52.47 53.87 54.58 52.65 50.97 54.86 59.31 58.67 57.60 56.97 57.33 58.43 58.73 59.54 59.83 59.10 58.43 58.43 55.99 59.42 52.99 43.07 44.01 42.45 40.56 46.70 57.78 59.53 59.79 59.85 59.04 58.20 56.04 55.96 57.11 57.11 56.16 56.98 56.87 56.78 57.04 57.12